Location: Cold Norton
(51.6667°N, 0.6667°E)
Time: 05:50:36
(UTC+00:00)

IGS 5A - Pass Details

Date: 18 November 2025
Orbit: 548 x 559 km, 97.4° (Epoch: 12 December)

Event Time Altitude Azimuth Distance (km) Brightness Sun altitude
Rises 16:44:14 0° 161° (SSE) 2,713 6.9 -6.5°
Reaches altitude 10° 16:46:20 10° 160° (SSE) 1,823 6.0 -6.8°
Maximum altitude 16:50:16 77° 75° (ENE) 571 3.3 -7.4°
Drops below altitude 10° 16:54:14 10° 349° (N) 1,836 5.9 -7.9°
Sets 16:56:23 0° 348° (NNW) 2,735 6.8 -8.2°
